Temp
6 7 7 7 6 6 6 6 5 5 4 3 3 3 3 2 2 2 2 2 2 2 3 3 3 3 3 3 3 3 4 4 3 3 3 3 3 3 3 2 3 3
6 6 6 6 6 5 5 5 5 4 3 3 2 2 2 2 1 1 2 2 2 1 2 2 2 2 2 2 2 3 3 3 2 2 2 2 1 2 2 1 1 2
5 5 6 5 5 5 5 4 4 3 3 2 2 1 1 1 1 1 1 1 1 1 1 1 1 2 2 2 2 2 2 2 1 1 1 1 0 1 1 1 1 1
5 5 5 5 5 4 4 4 3 2 2 1 1 1 0 0 -0 0 0 0 1 1 1 1 0 1 1 1 2 2 2 2 1 1 1 0 -0 0 0 1 1 0
4 5 5 4 4 4 3 3 2 2 1 1 0 -0 -0 -1 -1 -1 -1 -1 0 0 0 0 0 0 1 1 1 2 1 1 0 1 1 0 -0 -0 -0 0 0 0
4 4 4 4 4 3 3 2 2 1 1 0 -0 -1 -1 -1 -1 -1 -1 -1 -1 -0 -0 -0 -0 -0 -0 -0 0 1 1 0 -0 0 1 0 -1 -1 -1 -0 0 0
4 3 3 3 3 3 2 2 1 0 -0 -1 -1 -1 -1 -1 -1 -2 -2 -2 -2 -1 -1 -1 -1 -1 -1 -1 -0 -0 -0 -0 -0 0 1 -0 -1 -1 -1 -1 0 -1
3 3 3 3 2 2 1 1 0 -0 -1 -1 -1 -2 -2 -2 -2 -2 -2 -2 -2 -2 -2 -2 -2 -1 -1 -1 -0 -0 -1 -1 -1 0 0 -1 -1 -1 -2 -1 -1 -1
3 2 2 2 2 1 1 0 -0 -1 -1 -1 -2 -2 -2 -2 -3 -3 -3 -3 -3 -3 -3 -3 -2 -1 -1 -1 -0 -0 -1 -1 -1 0 0 -0 -1 -1 -2 -2 -1 -2
2 2 2 1 1 1 0 -0 -1 -1 -2 -2 -2 -2 -3 -3 -3 -4 -4 -4 -4 -4 -3 -3 -2 -2 -2 -1 -1 -1 -1 -1 -1 -1 -1 -1 -1 -1 -2 -2 -2 -2
1 1 1 1 0 -0 -1 -1 -1 -2 -2 -3 -3 -3 -3 -4 -4 -4 -4 -4 -4 -4 -3 -3 -2 -2 -2 -2 -2 -1 -1 -1 -2 -2 -2 -2 -2 -2 -3 -3 -3 -3
1 0 0 -0 -0 -1 -1 -2 -2 -3 -3 -3 -3 -4 -4 -4 -5 -5 -5 -4 -4 -3 -3 -3 -2 -2 -2 -2 -2 -2 -2 -2 -2 -2 -3 -3 -3 -3 -3 -3 -3 -3
-0 -0 -0 -1 -1 -1 -2 -2 -3 -3 -3 -4 -4 -4 -5 -5 -5 -5 -5 -4 -4 -4 -3 -3 -2 -2 -2 -2 -2 -2 -2 -2 -3 -3 -3 -4 -4 -4 -4 -4 -4 -4
-0 -1 -1 -1 -2 -2 -2 -3 -3 -4 -4 -5 -5 -5 -5 -5 -5 -5 -5 -5 -4 -4 -3 -3 -3 -3 -3 -3 -3 -3 -3 -3 -3 -4 -4 -4 -4 -4 -5 -5 -5 -5
-1 -1 -2 -2 -2 -3 -3 -4 -4 -5 -5 -5 -5 -6 -6 -6 -6 -5 -5 -5 -4 -4 -3 -3 -3 -3 -3 -3 -3 -3 -3 -4 -4 -4 -4 -4 -5 -5 -5 -5 -5 -5
-2 -2 -3 -3 -3 -4 -4 -5 -5 -5 -6 -6 -6 -6 -6 -6 -6 -6 -5 -5 -4 -4 -4 -4 -3 -3 -3 -4 -4 -4 -4 -4 -4 -4 -4 -4 -5 -5 -5 -6 -6 -6
-3 -3 -4 -4 -4 -5 -5 -5 -6 -6 -6 -7 -7 -7 -7 -7 -6 -6 -6 -5 -4 -4 -4 -4 -4 -4 -5 -5 -5 -5 -5 -5 -5 -5 -5 -5 -5 -5 -5 -6 -6 -6
-3 -4 -5 -5 -5 -5 -6 -6 -6 -7 -7 -7 -7 -7 -7 -7 -7 -6 -6 -5 -5 -5 -5 -5 -5 -6 -6 -6 -6 -6 -6 -5 -5 -5 -5 -6 -5 -5 -5 -5 -6 -6
-4 -5 -5 -6 -6 -6 -6 -7 -7 -8 -8 -8 -8 -8 -8 -7 -7 -6 -6 -6 -5 -5 -6 -6 -6 -7 -7 -7 -7 -7 -6 -6 -6 -6 -6 -6 -6 -6 -6 -6 -6 -7
-5 -6 -6 -7 -7 -7 -7 -8 -8 -8 -8 -8 -8 -8 -8 -8 -7 -7 -6 -6 -6 -6 -6 -7 -7 -7 -7 -7 -7 -7 -7 -7 -6 -6 -6 -6 -6 -6 -6 -7 -7 -7
-6 -7 -7 -7 -8 -8 -8 -9 -9 -9 -9 -9 -8 -8 -8 -8 -7 -7 -7 -7 -7 -7 -7 -7 -8 -8 -8 -8 -8 -8 -7 -7 -7 -7 -7 -7 -7 -7 -7 -8 -8 -8
-7 -7 -8 -8 -9 -9 -9 -9 -9 -9 -9 -9 -9 -9 -8 -8 -7 -7 -7 -7 -7 -7 -7 -8 -8 -8 -8 -8 -8 -8 -8 -7 -7 -7 -7 -7 -7 -8 -8 -8 -8 -8
-8 -8 -9 -9 -10 -10 -10 -10 -10 -10 -10 -10 -10 -9 -9 -8 -8 -8 -7 -7 -8 -8 -8 -8 -8 -8 -8 -8 -9 -9 -8 -8 -8 -8 -7 -8 -8 -8 -8 -9 -9 -9
-8 -8 -9 -10 -10 -10 -10 -10 -10 -10 -10 -10 -9 -9 -9 -9 -8 -8 -8 -8 -8 -8 -8 -8 -8 -8 -8 -8 -9 -9 -8 -8 -8 -8 -8 -8 -8 -9 -9 -9 -9 -9
-9 -9 -9 -10 -10 -10 -10 -11 -11 -11 -10 -10 -10 -9 -9 -9 -8 -8 -8 -8 -8 -8 -8 -8 -8 -8 -8 -8 -9 -9 -9 -8 -9 -9 -9 -9 -9 -9 -9 -9 -9 -9
-9 -9 -10 -10 -10 -10 -11 -11 -11 -11 -11 -11 -11 -10 -9 -9 -9 -8 -8 -9 -9 -8 -8 -8 -8 -8 -8 -8 -9 -9 -9 -9 -9 -9 -9 -9 -9 -9 -9 -9 -9 -9
Height
762 762 762 763 763 764 765 766 767 768 769 769 770 770 771 772 773 774 775 776 777 778 778 778 779 780 780 781 782 782 783 784 785 787 789 790 791 792 793 794 794 796
761 761 761 761 762 762 763 764 765 767 768 769 770 770 771 772 773 774 775 776 777 778 779 780 780 780 781 781 782 782 783 785 787 789 790 791 793 793 793 794 796 797
761 761 761 761 761 761 762 763 763 764 766 767 769 770 771 771 772 773 775 776 777 778 780 781 781 781 782 782 783 783 784 786 788 790 792 792 794 794 794 795 797 798
761 761 761 760 760 760 760 761 762 763 764 766 767 769 770 771 772 773 774 775 776 778 779 781 782 782 782 782 783 784 785 786 788 790 792 793 795 795 795 797 798 799
760 760 760 760 759 760 760 760 760 761 763 764 765 767 769 771 773 773 774 775 776 778 779 780 781 782 783 783 783 783 785 786 788 790 791 792 795 796 797 798 798 798
758 758 758 759 759 759 760 760 760 761 762 764 765 766 768 770 773 774 775 776 776 777 778 779 781 782 782 783 783 784 785 785 787 788 789 791 794 796 798 799 798 799
756 757 757 757 758 758 759 759 760 761 762 764 765 766 768 770 772 774 775 776 777 777 777 778 780 781 782 783 784 785 785 786 787 788 789 791 794 796 798 799 799 800
755 755 755 756 756 757 758 759 760 761 762 763 765 766 768 770 771 773 775 776 777 778 778 778 779 781 782 784 785 785 786 787 787 788 789 791 793 796 798 799 800 802
753 754 754 755 755 756 757 758 759 760 762 763 765 766 768 769 771 772 774 776 777 778 779 780 780 781 783 784 785 786 787 788 788 788 789 791 793 795 797 798 800 803
752 753 753 754 754 755 756 757 758 760 761 762 764 765 767 769 770 772 773 776 777 778 779 780 781 782 783 785 786 787 788 788 789 789 790 791 793 795 797 799 801 803
750 751 752 753 753 754 755 756 758 759 760 762 763 764 766 767 770 771 773 775 777 778 780 781 782 783 784 785 786 787 788 789 789 790 791 793 794 796 798 800 802 803
749 750 751 752 753 753 754 755 757 758 760 761 762 763 765 766 769 771 772 774 776 778 780 781 783 784 785 786 787 788 789 789 790 791 792 794 795 797 798 800 802 803
747 749 750 751 752 752 753 754 756 757 759 760 762 763 764 766 768 770 772 774 775 777 779 781 783 784 786 787 787 788 789 790 790 792 793 795 796 797 798 800 802 803
745 747 748 749 750 751 752 753 754 756 758 760 761 762 764 765 767 769 771 773 775 777 779 780 782 784 786 787 788 789 790 790 791 792 793 795 796 798 799 800 802 803
743 744 745 747 748 749 751 752 753 755 757 759 760 762 763 765 766 769 770 772 775 777 779 781 782 784 786 787 789 790 790 791 792 793 794 795 797 798 800 801 802 803
740 742 743 744 746 747 749 751 752 754 756 758 760 761 762 764 766 768 770 772 774 776 779 781 783 784 786 788 789 790 791 792 793 794 795 796 797 798 800 801 802 803
738 739 741 742 744 746 747 749 751 753 755 757 758 760 762 763 765 767 770 772 773 776 778 780 783 785 786 788 790 791 792 793 793 795 796 796 797 798 799 800 801 802
735 737 739 740 742 744 746 748 750 752 754 756 757 759 761 762 765 767 769 771 773 775 778 780 783 785 786 788 790 791 793 794 794 795 796 797 798 798 799 800 801 802
734 735 737 739 740 742 745 747 749 751 753 755 757 759 760 761 763 765 768 770 772 774 777 780 782 784 786 788 790 792 793 794 795 796 796 797 798 798 799 800 801 802
732 734 736 738 740 742 744 746 748 750 752 754 755 757 759 760 762 764 767 769 772 774 776 779 781 783 786 788 789 791 793 794 795 796 796 797 798 798 799 800 800 801
732 734 736 737 740 742 743 745 747 749 751 753 754 756 758 759 761 763 766 769 771 774 776 778 780 782 784 787 788 790 792 793 794 795 796 797 798 798 799 799 800 801
732 734 736 738 740 741 743 745 747 748 750 752 754 756 758 759 761 763 766 768 770 773 775 777 779 782 784 786 788 789 791 792 793 795 796 796 797 798 798 799 799 800
732 734 736 738 740 742 743 745 746 748 750 751 753 755 756 758 760 762 765 767 769 772 774 776 778 780 783 785 787 788 789 791 792 794 795 795 796 797 797 798 799 799
730 733 735 737 739 741 743 745 746 748 749 750 752 753 755 757 759 761 764 767 769 771 773 775 777 779 781 783 785 787 788 790 791 792 793 794 795 796 796 797 798 798
728 731 733 735 738 740 742 744 746 748 749 751 752 753 754 756 758 760 763 765 768 770 772 774 776 778 780 782 784 786 787 789 790 791 792 793 794 795 795 796 797 797
726 729 731 733 736 738 741 744 746 748 749 750 752 753 754 756 758 760 762 764 766 769 771 773 774 776 778 780 782 784 785 787 789 790 791 792 793 793 794 795 795 796
Wind_Speed
12 12 15 20 22 23 23 23 23 23 23 22 22 22 21 21 21 21 20 20 20 21 22 23 23 24 24 24 24 23 23 23 22 21 21 22 22 22 22 21 20 20
12 12 14 18 21 22 22 22 23 23 23 22 22 22 22 21 21 21 21 21 21 21 22 23 24 24 24 24 23 23 23 23 22 22 22 23 23 23 23 22 21 20
13 13 14 17 20 21 22 22 22 22 22 22 22 22 22 22 22 21 21 22 23 23 22 23 23 23 23 24 23 23 24 24 24 24 23 24 23 23 23 22 21 20
14 15 15 17 19 20 21 22 22 23 23 22 22 23 22 22 22 22 23 23 24 24 24 23 23 24 24 24 25 25 25 25 25 25 25 24 23 22 22 21 21 20
15 16 16 17 19 20 21 22 23 23 23 23 23 24 23 23 23 23 24 24 25 25 25 25 24 25 25 26 26 27 28 27 27 26 26 25 23 21 21 20 20 19
15 16 17 18 19 20 21 22 23 23 23 24 24 24 24 24 24 24 25 25 26 26 26 26 26 27 27 28 28 29 29 29 28 27 26 26 23 21 20 18 18 18
16 17 17 18 19 20 21 22 22 22 23 23 24 24 25 25 25 25 25 26 26 27 27 28 28 29 29 28 29 29 29 29 28 27 26 25 24 21 19 17 17 17
17 18 18 19 20 21 21 22 22 22 23 23 24 24 25 25 26 26 26 26 27 27 28 28 29 29 29 29 29 29 29 28 27 26 25 25 23 21 19 17 16 16
18 19 19 20 21 21 21 22 22 22 23 24 24 25 25 26 26 27 27 26 27 27 27 28 28 29 29 29 29 28 28 27 25 24 24 24 22 21 19 17 15 14
19 20 20 21 21 22 22 22 22 23 24 24 25 26 26 26 26 27 27 26 26 27 27 28 28 28 28 28 27 27 27 26 24 23 23 22 20 19 18 16 15 14
20 21 21 22 22 22 22 22 23 24 24 25 26 26 27 27 27 27 27 27 27 27 27 28 28 27 27 27 26 26 25 25 23 22 21 20 19 18 17 15 14 13
21 21 22 22 22 22 23 23 24 25 25 26 26 27 27 27 27 27 27 27 28 28 28 27 27 27 26 26 25 24 24 23 22 22 21 20 19 17 16 14 13 12
22 22 23 23 23 23 23 24 24 25 26 26 26 27 28 28 28 28 28 28 28 28 28 27 27 26 25 25 24 23 23 23 22 21 21 19 18 17 16 15 13 12
23 23 23 23 23 24 24 24 25 25 26 26 27 28 29 29 29 29 29 28 28 28 28 27 26 25 24 24 23 23 22 22 21 21 20 19 18 17 16 15 14 13
24 24 24 24 24 24 25 25 26 26 26 27 27 28 29 29 30 30 30 29 29 28 27 26 25 24 23 23 22 22 21 20 20 19 19 19 18 17 16 15 14 13
24 24 25 25 25 25 26 26 26 27 27 28 28 29 30 30 30 30 30 30 29 28 26 25 24 24 23 22 21 21 20 20 19 18 18 17 18 17 16 15 14 13
25 25 25 26 26 27 27 27 27 28 28 29 29 29 30 30 30 30 30 29 29 28 27 26 25 24 22 21 20 19 19 18 18 18 17 17 16 16 16 15 14 13
26 26 26 27 27 28 28 28 28 28 29 29 30 30 31 31 31 31 30 29 29 28 27 25 24 23 21 20 18 18 17 17 17 17 17 17 16 15 14 14 13 12
27 27 27 27 28 28 28 29 29 29 30 30 31 31 32 32 32 31 30 30 29 28 27 25 24 22 21 19 18 17 17 17 17 17 17 17 16 14 13 12 12 11
27 27 27 27 28 29 29 29 30 30 30 31 32 32 32 33 32 31 31 30 29 28 27 25 24 22 21 19 18 17 17 17 16 16 16 15 14 13 12 11 11 10
27 27 26 27 28 29 29 29 30 30 31 31 33 34 34 33 33 32 31 30 29 28 27 25 24 23 21 19 18 18 17 17 16 16 15 14 14 13 12 11 10 9
27 26 26 27 29 28 28 29 30 31 32 32 33 33 32 32 31 31 31 30 28 27 26 26 24 23 22 20 18 17 18 17 16 16 15 15 14 13 12 10 10 9
27 27 27 27 28 28 28 29 30 32 32 32 33 33 32 32 31 30 30 29 28 27 26 26 25 23 22 21 18 17 18 18 17 16 16 15 14 13 11 11 10 9
27 28 28 28 29 28 28 29 30 32 32 33 34 35 33 32 31 30 28 28 27 27 26 25 25 24 23 22 20 18 18 18 17 16 15 14 13 12 12 11 10 10
28 29 29 30 29 28 29 30 30 31 31 31 33 34 33 32 30 29 28 27 26 26 25 24 24 24 23 23 21 19 18 18 17 16 15 14 13 13 12 11 11 10
29 29 29 30 29 29 29 30 30 31 30 30 30 31 31 30 29 29 28 27 26 25 25 24 24 23 22 22 21 20 19 18 17 17 16 15 14 14 13 12 11 10
Wind_Direction
256 251 242 234 230 230 228 226 225 223 222 219 216 214 212 209 207 205 203 200 198 196 192 188 184 180 176 172 170 166 162 160 157 156 158 156 154 152 149 146 144 144
253 251 240 232 227 225 224 223 223 221 219 217 215 213 209 205 203 200 199 196 192 190 186 182 179 176 172 167 165 161 156 154 150 150 152 149 146 145 142 138 137 138
248 250 241 233 228 224 221 218 218 217 216 214 211 208 204 201 198 195 194 191 188 184 181 179 176 174 171 167 164 161 157 154 150 150 149 144 143 141 137 136 136 135
247 247 240 235 229 223 219 215 213 213 212 210 206 203 200 196 194 191 188 187 184 181 178 176 173 170 167 165 165 161 156 154 151 152 149 142 141 140 137 138 137 134
246 242 236 230 225 220 216 213 211 210 208 205 201 198 196 193 190 188 184 183 181 179 177 175 172 169 166 165 164 160 155 153 152 153 149 142 141 140 139 141 138 133
239 234 229 226 222 217 214 211 210 208 204 201 197 194 193 191 189 186 183 181 180 178 176 174 171 169 167 164 161 158 156 153 152 152 148 142 141 141 141 143 138 133
231 227 223 220 217 214 211 210 207 205 202 199 195 193 192 190 188 186 184 182 180 177 175 172 169 168 166 165 161 158 156 153 152 151 147 142 142 142 141 141 136 134
224 221 217 214 210 208 207 206 204 202 200 197 193 191 190 189 187 184 183 182 179 176 173 170 168 166 165 165 163 159 155 153 153 152 147 144 144 142 141 140 138 140
218 215 212 209 206 204 204 202 201 199 197 195 192 190 188 187 186 183 181 180 177 174 171 168 166 164 163 163 163 159 155 154 154 153 149 147 147 145 143 144 145 149
212 210 207 204 202 201 201 199 198 196 195 194 192 189 187 185 184 182 180 178 175 172 170 167 165 163 162 162 161 159 157 155 154 152 149 148 148 146 145 148 150 153
207 205 203 201 201 199 199 198 196 195 193 192 191 188 185 184 182 180 179 177 174 171 168 166 165 164 163 162 160 159 157 155 153 150 147 146 146 145 147 150 153 155
203 202 200 200 200 198 197 196 195 193 191 191 190 187 183 181 179 177 177 175 173 170 168 166 165 166 165 163 160 159 157 154 152 149 148 147 148 148 150 152 155 158
201 201 200 200 199 198 196 194 193 192 191 189 188 186 182 178 176 175 174 174 171 169 168 167 166 166 165 163 161 160 158 155 153 151 150 151 151 151 153 154 157 159
200 200 200 199 198 196 194 192 191 190 189 188 185 183 180 178 176 174 172 171 170 168 167 167 166 165 164 163 161 160 159 157 156 156 154 154 154 154 156 158 160 162
200 199 198 197 195 193 192 190 189 187 186 185 183 181 179 177 175 174 172 169 168 168 168 167 167 166 166 166 164 163 162 161 160 160 159 158 157 158 159 161 163 164
199 197 195 194 193 191 190 188 186 185 184 182 180 179 177 175 173 172 171 169 168 167 167 168 169 169 168 169 169 167 167 165 164 164 164 164 163 162 163 164 166 166
197 195 194 192 191 189 188 186 185 183 181 180 178 176 175 173 171 170 169 169 169 168 168 169 170 170 169 169 170 170 170 169 167 167 167 169 169 169 168 168 168 168
196 194 192 190 189 188 186 185 183 181 179 177 176 174 173 171 170 170 170 170 170 169 169 171 171 169 169 170 171 173 174 173 172 171 172 173 174 175 175 174 173 172
195 193 190 189 188 187 185 183 181 179 178 176 175 174 172 171 171 171 171 171 172 171 171 171 170 169 170 172 173 175 177 178 178 177 177 177 178 179 180 179 178 177
193 191 189 188 186 184 182 181 179 179 178 177 175 174 173 172 172 172 172 173 173 173 172 172 171 171 172 174 175 177 180 182 182 182 182 182 183 184 184 183 183 182
190 188 186 184 182 181 180 180 179 178 177 177 177 176 176 175 174 174 174 174 175 175 174 173 173 172 173 175 178 181 183 184 186 186 186 187 187 187 188 187 187 187
187 185 182 181 179 179 179 180 180 179 178 177 176 175 175 175 175 176 176 175 176 177 177 176 175 175 175 175 178 185 188 187 188 190 190 190 191 191 193 194 195 197
187 184 181 179 178 179 179 179 180 179 177 176 174 174 174 176 176 177 179 178 178 180 180 179 178 178 179 178 178 187 192 190 191 193 193 195 196 198 200 201 204 206
187 185 182 180 180 181 181 180 180 179 177 176 177 176 176 177 178 177 179 181 182 183 184 184 183 183 185 184 183 189 195 194 195 197 198 201 203 205 208 208 209 212
187 186 185 182 182 183 182 180 180 180 178 177 179 178 176 177 178 178 179 182 184 185 186 188 189 188 189 189 188 193 198 198 200 204 205 207 209 210 212 213 212 216
187 187 186 184 183 183 182 181 180 179 179 178 178 178 177 177 179 181 182 182 185 187 189 191 192 192 193 194 193 197 202 202 205 210 210 210 213 214 216 216 217 221